Location: Allen Lane School
(37.8198°N, 89.7382°W)
Time: 20:11:31
(UTC+00:00)

USA 215 - Pass Details

Date: 08 December 2021
Orbit: 1099 x 1109 km, 123.0° (Epoch: 14 January)

Event Time Altitude Azimuth Distance (km) Brightness Sun altitude
Rises 11:58:32 0° 117° (ESE) 3,910 8.2 -12.3°
Reaches altitude 10° 12:01:04 10° 113° (ESE) 2,953 7.1 -11.8°
Maximum altitude 12:07:22 55° 38° (NE) 1,307 3.8 -10.7°
Drops below altitude 10° 12:13:42 10° 323° (NW) 2,958 5.0 -9.5°
Enters shadow 12:14:33 - 321° (NW) 3,281 5.2 -9.3°
